Zurück zum Katalog

FENGYUN 1C DEB

AktivSSO
NORAD 31642·DEBRIS·🇨🇳 China

Gestartet May 10, 1999 von Taiyuan Satellite Launch Center

Loading…

Nächste Überflüge (nächste 24 Stunden)

TLE

AktuellSource: Space-Track

Epoche: Sep 12, 2026, 23:21 UTC

1 31642U 99025CAY 26255.97322073  .00000570  00000-0  20357-3 0  9996
2 31642  98.4871 338.2171 0119794 163.0271 197.4976 14.33872701  9155

Verfolge FENGYUN 1C DEB in Echtzeit mit AllMySat

Download on the App Store